Starlink 1814

operational
NORAD ID: 46712 Int'l Des: 2020-073 Owner: SPXS Country: US Constellation: starlink
LEOCIRCULARSTARLINK_TYPE

About Starlink 1814

Description loading...

Live Position

Loading 3D Globe...

Upcoming Passes

Altitude History

Altitude vs Time

uPlot chart will show altitude changes over time

Two-Line Element Set

1 46712U 20073AU 25305.66668981 .00109414 00000-0 26972-2 0 9994
2 46712 53.0528 89.7819 0005067 264.5878 136.7317 15.39711060 5911
Epoch: Nov 1, 2025 • Age: 21 hours

Current Status

Altitude 458.7 km
Velocity 7.64 km/s
Sub-Earth Point -45.09°S, 154.47°E
Launch Date Oct 18, 2020
Age 5 years
Type internet

Technical Details

Classification Payload
Mass 260.00 kg
Dry Mass 248.00 kg
Total Mass 260.00 kg
Length 0.20 m
Diameter 2.80 m
Span 9.00 m
Shape Box + pan
Manufacturer SPXS
Bus Type Starlink
Phase Status In Orbit
Owner/State SPXS/US

Large Constellations

Loading constellations...